N1738 KBOS-KCLT

Flight info

Callsign N1738
Flight time 1h 46m
Altitude 40000
Route PATSS7 PATSS NELIE Q75 GVE AIROW CHSLY6
Aircraft A388/J-SADE2E3FGHIJ3J4J5M1RWXY/LB1D1

Departure

Time 2026-05-05 23:38
Airport Boston Logan International Airport (KBOS)

Arrival

Time 2026-05-06 01:25
Airport Charlotte Douglas International Airport (KCLT)
Time Latitude Longitude Altitude Speed Heading
2026-05-05 23:16 42.37117 -71.02160 29 ft 0 kts 132°
2026-05-05 23:30 42.37121 -71.02171 30 ft 3 kts 112°
2026-05-05 23:30 42.37120 -71.02200 28 ft 3 kts 64°
2026-05-05 23:31 42.37108 -71.02216 26 ft 1 kts 32°
2026-05-05 23:34 42.37135 -71.02196 28 ft 14 kts 26°
2026-05-05 23:34 42.37207 -71.02104 31 ft 18 kts 65°
2026-05-05 23:35 42.37271 -71.01911 35 ft 23 kts 31°
2026-05-05 23:35 42.37324 -71.01878 34 ft 0 kts 24°
2026-05-05 23:36 42.37333 -71.01872 33 ft 0 kts 30°
2026-05-05 23:37 42.37368 -71.01838 33 ft 17 kts 47°
2026-05-05 23:37 42.37374 -71.01727 35 ft 17 kts 115°
2026-05-05 23:37 42.37161 -71.01420 34 ft 99 kts 135°
2026-05-05 23:38 42.36475 -71.00481 152 ft 172 kts 140°
2026-05-05 23:38 42.35525 -70.99068 427 ft 229 kts 137°
2026-05-05 23:38 42.34555 -70.97264 1393 ft 242 kts 124°
2026-05-05 23:38 42.33984 -70.95086 2589 ft 254 kts 118°
2026-05-05 23:39 42.33415 -70.92697 3306 ft 280 kts 116°
2026-05-05 23:39 42.32825 -70.90104 4067 ft 294 kts 113°
2026-05-05 23:39 42.32357 -70.87374 4261 ft 307 kts 100°
2026-05-05 23:39 42.32545 -70.84453 4902 ft 318 kts 79°
2026-05-05 23:40 42.33015 -70.81549 5001 ft 314 kts 88°
2026-05-05 23:40 42.32790 -70.78690 5004 ft 300 kts 115°
2026-05-05 23:40 42.31889 -70.76211 5002 ft 292 kts 127°
2026-05-05 23:40 42.30865 -70.73852 5004 ft 287 kts 134°
2026-05-05 23:41 42.29440 -70.72115 5007 ft 268 kts 161°
2026-05-05 23:41 42.27715 -70.71474 5009 ft 251 kts 186°
2026-05-05 23:41 42.26028 -70.71777 5011 ft 243 kts 198°
2026-05-05 23:41 42.24363 -70.72215 5015 ft 243 kts 197°
2026-05-05 23:42 42.22690 -70.72612 5090 ft 245 kts 196°
2026-05-05 23:42 42.21009 -70.73046 5532 ft 245 kts 204°
2026-05-05 23:42 42.19557 -70.74165 6571 ft 240 kts 225°
2026-05-05 23:42 42.18551 -70.75949 7655 ft 241 kts 244°
2026-05-05 23:43 42.18103 -70.78152 8713 ft 249 kts 258°
2026-05-05 23:43 42.17804 -70.80500 9721 ft 257 kts 258°
2026-05-05 23:43 42.17493 -70.82865 10629 ft 266 kts 258°
2026-05-05 23:43 42.17148 -70.85422 11055 ft 290 kts 258°
2026-05-05 23:44 42.16770 -70.88196 11458 ft 311 kts 258°
2026-05-05 23:44 42.16375 -70.91089 12338 ft 315 kts 258°
2026-05-05 23:44 42.15980 -70.94007 13247 ft 319 kts 259°
2026-05-05 23:44 42.15700 -70.97005 14054 ft 325 kts 262°
2026-05-05 23:45 42.15437 -71.00045 14854 ft 328 kts 262°
2026-05-05 23:45 42.15167 -71.03116 15641 ft 333 kts 262°
2026-05-05 23:45 42.14889 -71.06241 16422 ft 337 kts 262°
2026-05-05 23:45 42.14606 -71.09405 17190 ft 342 kts 262°
2026-05-05 23:46 42.14319 -71.12604 17940 ft 346 kts 262°
2026-05-05 23:46 42.14027 -71.15844 18630 ft 350 kts 262°
2026-05-05 23:46 42.13732 -71.19106 19286 ft 353 kts 262°
2026-05-05 23:46 42.13432 -71.22410 19919 ft 356 kts 262°
2026-05-05 23:47 42.13130 -71.25736 20590 ft 359 kts 262°
2026-05-05 23:47 42.12824 -71.29090 21222 ft 362 kts 262°
2026-05-05 23:47 42.12514 -71.32477 21860 ft 366 kts 262°
2026-05-05 23:47 42.12200 -71.35895 22485 ft 369 kts 262°
2026-05-05 23:48 42.12116 -71.39363 23058 ft 374 kts 272°
2026-05-05 23:48 42.12378 -71.42861 23648 ft 377 kts 275°
2026-05-05 23:48 42.12649 -71.46396 24143 ft 380 kts 274°
2026-05-05 23:48 42.12839 -71.49962 24655 ft 384 kts 272°
2026-05-05 23:49 42.12922 -71.53568 25173 ft 387 kts 270°
2026-05-05 23:49 42.12884 -71.57202 25750 ft 389 kts 267°
2026-05-05 23:49 42.12715 -71.60843 26407 ft 391 kts 265°
2026-05-05 23:49 42.12407 -71.64501 26939 ft 396 kts 262°
2026-05-05 23:50 42.11939 -71.68183 27532 ft 401 kts 259°
2026-05-05 23:50 42.11224 -71.71827 28128 ft 407 kts 251°
2026-05-05 23:50 42.09976 -71.75218 28698 ft 413 kts 243°
2026-05-05 23:50 42.08644 -71.78660 29283 ft 417 kts 248°
2026-05-05 23:51 42.07576 -71.82301 29864 ft 420 kts 253°
2026-05-05 23:51 42.06762 -71.86093 30410 ft 423 kts 257°
2026-05-05 23:51 42.06103 -71.89948 30978 ft 426 kts 259°
2026-05-05 23:51 42.05505 -71.93863 31594 ft 428 kts 261°
2026-05-05 23:52 42.04928 -71.97790 32198 ft 429 kts 262°
2026-05-05 23:52 42.04432 -72.01763 32718 ft 432 kts 263°
2026-05-05 23:52 42.03661 -72.05697 33278 ft 441 kts 253°
2026-05-05 23:52 42.02333 -72.09461 33829 ft 448 kts 247°
2026-05-05 23:53 42.00826 -72.13154 34230 ft 454 kts 245°
2026-05-05 23:53 41.99242 -72.16846 34707 ft 457 kts 244°
2026-05-05 23:53 41.97629 -72.20524 35390 ft 455 kts 243°
2026-05-05 23:53 41.96019 -72.24171 36145 ft 452 kts 243°
2026-05-05 23:54 41.94422 -72.27785 36947 ft 447 kts 242°
2026-05-05 23:54 41.92846 -72.31354 37783 ft 443 kts 242°
2026-05-05 23:54 41.91280 -72.34901 38468 ft 441 kts 241°
2026-05-05 23:54 41.89721 -72.38434 38966 ft 440 kts 241°
2026-05-05 23:55 41.88155 -72.41975 39380 ft 442 kts 241°
2026-05-05 23:55 41.86587 -72.45520 39758 ft 443 kts 241°
2026-05-05 23:55 41.85003 -72.49096 39968 ft 449 kts 241°
2026-05-05 23:55 41.83396 -72.52721 39996 ft 450 kts 241°
2026-05-05 23:56 41.80215 -72.59873 40009 ft 446 kts 241°
2026-05-05 23:56 41.77064 -72.66945 40001 ft 446 kts 241°
2026-05-05 23:57 41.73878 -72.74080 40000 ft 446 kts 241°
2026-05-05 23:57 41.70691 -72.81201 39992 ft 446 kts 241°
2026-05-05 23:58 41.67507 -72.88297 40030 ft 447 kts 241°
2026-05-05 23:58 41.65285 -72.93239 40019 ft 447 kts 241°
2026-05-05 23:59 41.62092 -73.00325 40016 ft 446 kts 241°
2026-05-05 23:59 41.58895 -73.07406 39995 ft 444 kts 241°
2026-05-06 00:00 41.55708 -73.14445 39956 ft 442 kts 241°
2026-05-06 00:00 41.52527 -73.21460 39973 ft 442 kts 241°
2026-05-06 00:01 41.49280 -73.28441 39961 ft 443 kts 238°
2026-05-06 00:01 41.45438 -73.34916 39987 ft 448 kts 230°
2026-05-06 00:02 41.41067 -73.40867 40003 ft 450 kts 229°
2026-05-06 00:02 41.36679 -73.46835 40021 ft 452 kts 229°
2026-05-06 00:03 41.32271 -73.52826 40031 ft 454 kts 229°
2026-05-06 00:03 41.27899 -73.58897 40050 ft 454 kts 232°
2026-05-06 00:04 41.23935 -73.65416 40038 ft 454 kts 234°
2026-05-06 00:04 41.19969 -73.71955 40039 ft 455 kts 234°
2026-05-06 00:05 41.14000 -73.81756 40045 ft 455 kts 234°
2026-05-06 00:06 41.10086 -73.88348 40038 ft 455 kts 235°
2026-05-06 00:06 41.06177 -73.94938 40018 ft 455 kts 235°
2026-05-06 00:07 41.02283 -74.01462 40013 ft 454 kts 236°
2026-05-06 00:07 40.98357 -74.08021 40013 ft 454 kts 236°
2026-05-06 00:08 40.94431 -74.14569 40021 ft 454 kts 236°
2026-05-06 00:08 40.90502 -74.21108 40027 ft 454 kts 236°
2026-05-06 00:09 40.86572 -74.27633 40019 ft 454 kts 236°
2026-05-06 00:09 40.82640 -74.34148 40022 ft 454 kts 236°
2026-05-06 00:10 40.78696 -74.40666 40021 ft 454 kts 236°
2026-05-06 00:10 40.74751 -74.47178 40010 ft 455 kts 236°
2026-05-06 00:11 40.70795 -74.53693 40006 ft 455 kts 236°
2026-05-06 00:11 40.66875 -74.60135 40012 ft 455 kts 236°
2026-05-06 00:12 40.62868 -74.66706 40021 ft 456 kts 236°
2026-05-06 00:12 40.58889 -74.73213 40024 ft 457 kts 235°
2026-05-06 00:13 40.54629 -74.79392 40001 ft 460 kts 232°
2026-05-06 00:13 40.50272 -74.85541 40020 ft 460 kts 232°
2026-05-06 00:14 40.45918 -74.91689 40041 ft 460 kts 232°
2026-05-06 00:14 40.41572 -74.97811 40041 ft 460 kts 232°
2026-05-06 00:15 40.37205 -75.03953 40049 ft 460 kts 232°
2026-05-06 00:15 40.32837 -75.10081 40037 ft 460 kts 232°
2026-05-06 00:16 40.28468 -75.16202 40036 ft 460 kts 232°
2026-05-06 00:16 40.24097 -75.22313 40050 ft 460 kts 232°
2026-05-06 00:17 40.19722 -75.28415 40052 ft 460 kts 232°
2026-05-06 00:17 40.15350 -75.34501 40045 ft 460 kts 232°
2026-05-06 00:18 40.10966 -75.40594 40049 ft 460 kts 232°
2026-05-06 00:18 40.06575 -75.46679 40064 ft 460 kts 233°
2026-05-06 00:19 40.02186 -75.52755 40066 ft 460 kts 233°
2026-05-06 00:19 39.97798 -75.58815 40065 ft 459 kts 233°
2026-05-06 00:20 39.93405 -75.64871 40062 ft 460 kts 233°
2026-05-06 00:20 39.89274 -75.71092 40058 ft 455 kts 237°
2026-05-06 00:21 39.85287 -75.77505 40041 ft 456 kts 237°
2026-05-06 00:21 39.81284 -75.83901 40048 ft 456 kts 237°
2026-05-06 00:22 39.77277 -75.90285 40047 ft 456 kts 237°
2026-05-06 00:22 39.73267 -75.96661 40038 ft 455 kts 237°
2026-05-06 00:23 39.69252 -76.03032 40043 ft 455 kts 237°
2026-05-06 00:23 39.65240 -76.09386 40031 ft 455 kts 237°
2026-05-06 00:24 39.61226 -76.15729 40021 ft 455 kts 237°
2026-05-06 00:24 39.57873 -76.20980 40029 ft 455 kts 237°
2026-05-06 00:25 39.53786 -76.27245 40024 ft 455 kts 237°
2026-05-06 00:25 39.49697 -76.33508 40028 ft 455 kts 237°
2026-05-06 00:26 39.45547 -76.39709 40036 ft 459 kts 233°
2026-05-06 00:26 39.41041 -76.45584 40025 ft 460 kts 233°
2026-05-06 00:27 39.36542 -76.51462 40056 ft 460 kts 233°
2026-05-06 00:27 39.32036 -76.57345 40063 ft 460 kts 233°
2026-05-06 00:28 39.27529 -76.63219 40039 ft 461 kts 233°
2026-05-06 00:28 39.23017 -76.69086 40016 ft 461 kts 233°
2026-05-06 00:29 39.18499 -76.74950 40041 ft 461 kts 233°
2026-05-06 00:29 39.13972 -76.80814 40075 ft 462 kts 233°
2026-05-06 00:30 39.09440 -76.86672 40076 ft 462 kts 233°
2026-05-06 00:30 39.04905 -76.92521 40057 ft 461 kts 233°
2026-05-06 00:31 39.00376 -76.98356 40060 ft 461 kts 233°
2026-05-06 00:31 38.95875 -77.04148 40062 ft 461 kts 233°
2026-05-06 00:32 38.91344 -77.09977 40056 ft 461 kts 233°
2026-05-06 00:32 38.86805 -77.15801 40026 ft 462 kts 233°
2026-05-06 00:33 38.82228 -77.21664 40030 ft 462 kts 233°
2026-05-06 00:33 38.77674 -77.27484 40043 ft 462 kts 234°
2026-05-06 00:34 38.73151 -77.33254 40044 ft 462 kts 234°
2026-05-06 00:34 38.68415 -77.38887 40070 ft 466 kts 230°
2026-05-06 00:35 38.63559 -77.44390 40077 ft 466 kts 231°
2026-05-06 00:35 38.58730 -77.49923 40073 ft 466 kts 231°
2026-05-06 00:36 38.53913 -77.55467 40073 ft 466 kts 231°
2026-05-06 00:36 38.49088 -77.61011 40098 ft 466 kts 231°
2026-05-06 00:37 38.44258 -77.66550 40083 ft 466 kts 231°
2026-05-06 00:37 38.39434 -77.72072 40085 ft 466 kts 231°
2026-05-06 00:38 38.34620 -77.77573 40082 ft 465 kts 231°
2026-05-06 00:38 38.29920 -77.83194 40082 ft 461 kts 234°
2026-05-06 00:39 38.25401 -77.88835 40047 ft 462 kts 233°
2026-05-06 00:39 38.20703 -77.94423 40071 ft 463 kts 232°
2026-05-06 00:40 38.15954 -77.99955 40086 ft 463 kts 232°
2026-05-06 00:40 38.11198 -78.05475 40092 ft 463 kts 232°
2026-05-06 00:41 38.06445 -78.10984 40090 ft 463 kts 232°
2026-05-06 00:41 38.01697 -78.16479 40081 ft 462 kts 232°
2026-05-06 00:42 37.96947 -78.21967 40075 ft 462 kts 232°
2026-05-06 00:42 37.92197 -78.27445 40077 ft 462 kts 232°
2026-05-06 00:43 37.87443 -78.32918 40083 ft 462 kts 232°
2026-05-06 00:43 37.82682 -78.38388 40082 ft 462 kts 232°
2026-05-06 00:44 37.77921 -78.43847 40092 ft 462 kts 232°
2026-05-06 00:44 37.73148 -78.49311 40092 ft 463 kts 232°
2026-05-06 00:45 37.68374 -78.54766 40096 ft 463 kts 232°
2026-05-06 00:45 37.63601 -78.60210 40080 ft 463 kts 232°
2026-05-06 00:46 37.58823 -78.65649 40100 ft 462 kts 232°
2026-05-06 00:46 37.54047 -78.71076 40134 ft 462 kts 232°
2026-05-06 00:47 37.49277 -78.76487 40113 ft 461 kts 232°
2026-05-06 00:47 37.44507 -78.81890 40120 ft 461 kts 232°
2026-05-06 00:48 37.39740 -78.87277 40101 ft 461 kts 232°
2026-05-06 00:48 37.34972 -78.92659 40124 ft 460 kts 232°
2026-05-06 00:49 37.30199 -78.98034 40122 ft 460 kts 232°
2026-05-06 00:49 37.25429 -79.03398 40109 ft 460 kts 232°
2026-05-06 00:50 37.20683 -79.08725 40082 ft 461 kts 232°
2026-05-06 00:50 37.15904 -79.14079 40102 ft 461 kts 232°
2026-05-06 00:51 37.11112 -79.19440 40113 ft 462 kts 232°
2026-05-06 00:51 37.06308 -79.24803 40124 ft 463 kts 232°
2026-05-06 00:52 37.01491 -79.30171 40127 ft 464 kts 232°
2026-05-06 00:52 36.96668 -79.35537 40123 ft 464 kts 232°
2026-05-06 00:53 36.91847 -79.40888 40089 ft 460 kts 232°
2026-05-06 00:53 36.89466 -79.43520 39888 ft 454 kts 232°
2026-05-06 00:53 36.87111 -79.46125 39427 ft 452 kts 232°
2026-05-06 00:53 36.84758 -79.48735 38782 ft 454 kts 232°
2026-05-06 00:54 36.82390 -79.51363 38032 ft 456 kts 232°
2026-05-06 00:54 36.80010 -79.53999 37266 ft 458 kts 232°
2026-05-06 00:54 36.77651 -79.56608 36513 ft 461 kts 232°
2026-05-06 00:54 36.75214 -79.59300 35660 ft 464 kts 232°
2026-05-06 00:55 36.72835 -79.61924 34933 ft 466 kts 231°
2026-05-06 00:55 36.70397 -79.64607 34189 ft 468 kts 231°
2026-05-06 00:55 36.67960 -79.67285 33581 ft 466 kts 231°
2026-05-06 00:55 36.65540 -79.69940 33073 ft 461 kts 231°
2026-05-06 00:56 36.63147 -79.72564 32542 ft 457 kts 230°
2026-05-06 00:56 36.60776 -79.75165 32025 ft 452 kts 230°
2026-05-06 00:56 36.58429 -79.77740 31502 ft 449 kts 229°
2026-05-06 00:56 36.56099 -79.80294 31019 ft 444 kts 229°
2026-05-06 00:57 36.53796 -79.82815 30571 ft 438 kts 229°
2026-05-06 00:57 36.51516 -79.85313 30057 ft 435 kts 229°
2026-05-06 00:57 36.49262 -79.87778 29645 ft 429 kts 228°
2026-05-06 00:57 36.47017 -79.90221 29319 ft 427 kts 228°
2026-05-06 00:58 36.44793 -79.92645 28998 ft 428 kts 228°
2026-05-06 00:58 36.42564 -79.95083 28685 ft 426 kts 228°
2026-05-06 00:58 36.40348 -79.97512 28354 ft 424 kts 228°
2026-05-06 00:58 36.38097 -79.99875 28039 ft 423 kts 226°
2026-05-06 00:59 36.35782 -80.02123 27732 ft 422 kts 224°
2026-05-06 00:59 36.33421 -80.04286 27421 ft 421 kts 223°
2026-05-06 00:59 36.31042 -80.06400 27087 ft 420 kts 222°
2026-05-06 00:59 36.28659 -80.08490 26776 ft 418 kts 222°
2026-05-06 01:00 36.26283 -80.10565 26484 ft 417 kts 222°
2026-05-06 01:00 36.23922 -80.12631 26184 ft 414 kts 222°
2026-05-06 01:00 36.21490 -80.14559 25892 ft 417 kts 215°
2026-05-06 01:00 36.18995 -80.16247 25618 ft 416 kts 216°
2026-05-06 01:01 36.16465 -80.17964 25336 ft 413 kts 215°
2026-05-06 01:01 36.13942 -80.19633 25056 ft 410 kts 215°
2026-05-06 01:01 36.11436 -80.21254 24780 ft 409 kts 214°
2026-05-06 01:01 36.08908 -80.22868 24478 ft 409 kts 214°
2026-05-06 01:02 36.06379 -80.24470 24194 ft 408 kts 214°
2026-05-06 01:02 36.03879 -80.26048 23941 ft 403 kts 213°
2026-05-06 01:02 36.01408 -80.27602 23673 ft 394 kts 214°
2026-05-06 01:02 35.99005 -80.29124 23373 ft 385 kts 216°
2026-05-06 01:03 35.96775 -80.30843 23055 ft 373 kts 220°
2026-05-06 01:03 35.94634 -80.32613 22745 ft 367 kts 220°
2026-05-06 01:03 35.92521 -80.34347 22436 ft 363 kts 220°
2026-05-06 01:03 35.90432 -80.36053 22121 ft 357 kts 220°
2026-05-06 01:04 35.88376 -80.37728 21808 ft 351 kts 220°
2026-05-06 01:04 35.86353 -80.39376 21517 ft 346 kts 220°
2026-05-06 01:04 35.84369 -80.40991 21220 ft 342 kts 219°
2026-05-06 01:04 35.82440 -80.42650 20921 ft 334 kts 224°
2026-05-06 01:05 35.80678 -80.44462 20626 ft 327 kts 228°
2026-05-06 01:05 35.79032 -80.46363 20340 ft 323 kts 230°
2026-05-06 01:05 35.77420 -80.48279 20038 ft 321 kts 229°
2026-05-06 01:05 35.75824 -80.50143 19766 ft 320 kts 229°
2026-05-06 01:06 35.74195 -80.52005 19485 ft 319 kts 228°
2026-05-06 01:06 35.72558 -80.53849 19209 ft 318 kts 228°
2026-05-06 01:06 35.70926 -80.55674 18931 ft 316 kts 227°
2026-05-06 01:06 35.69295 -80.57493 18601 ft 317 kts 227°
2026-05-06 01:07 35.67663 -80.59311 18232 ft 316 kts 227°
2026-05-06 01:07 35.66037 -80.61122 17882 ft 314 kts 227°
2026-05-06 01:07 35.64427 -80.62911 17592 ft 310 kts 227°
2026-05-06 01:07 35.62839 -80.64677 17293 ft 306 kts 227°
2026-05-06 01:08 35.61270 -80.66421 16979 ft 303 kts 227°
2026-05-06 01:08 35.59714 -80.68151 16678 ft 300 kts 227°
2026-05-06 01:08 35.58177 -80.69860 16378 ft 297 kts 227°
2026-05-06 01:08 35.56658 -80.71545 16206 ft 290 kts 227°
2026-05-06 01:09 35.55186 -80.73175 16131 ft 280 kts 227°
2026-05-06 01:09 35.53758 -80.74756 15930 ft 275 kts 227°
2026-05-06 01:09 35.52334 -80.76341 15463 ft 279 kts 227°
2026-05-06 01:09 35.50881 -80.77959 14989 ft 284 kts 226°
2026-05-06 01:10 35.49399 -80.79606 14459 ft 291 kts 226°
2026-05-06 01:10 35.47885 -80.81284 13932 ft 296 kts 226°
2026-05-06 01:10 35.46339 -80.82995 13296 ft 302 kts 226°
2026-05-06 01:10 35.44761 -80.84738 12621 ft 308 kts 226°
2026-05-06 01:11 35.43159 -80.86507 11879 ft 312 kts 225°
2026-05-06 01:11 35.41550 -80.88282 11192 ft 310 kts 225°
2026-05-06 01:11 35.39943 -80.90052 10466 ft 311 kts 226°
2026-05-06 01:11 35.38335 -80.91824 9710 ft 312 kts 225°
2026-05-06 01:12 35.36724 -80.93604 8884 ft 312 kts 225°
2026-05-06 01:12 35.35017 -80.95232 8067 ft 313 kts 210°
2026-05-06 01:12 35.32947 -80.96065 7243 ft 318 kts 189°
2026-05-06 01:12 35.31477 -80.96087 6665 ft 321 kts 178°
2026-05-06 01:13 35.29249 -80.95828 5106 ft 333 kts 177°
2026-05-06 01:13 35.26871 -80.95590 3554 ft 348 kts 177°
2026-05-06 01:13 35.24465 -80.95351 2572 ft 344 kts 176°
2026-05-06 01:13 35.22088 -80.95092 2413 ft 333 kts 176°
2026-05-06 01:14 35.17754 -80.94901 2250 ft 302 kts 195°
2026-05-06 01:14 35.15920 -80.96117 3068 ft 302 kts 219°
2026-05-06 01:14 35.14614 -80.98153 3652 ft 314 kts 240°
2026-05-06 01:15 35.13993 -81.00792 3913 ft 330 kts 262°
2026-05-06 01:15 35.14103 -81.03516 3963 ft 309 kts 272°
2026-05-06 01:15 35.14334 -81.05996 4009 ft 280 kts 272°
2026-05-06 01:15 35.14831 -81.08186 4008 ft 262 kts 295°
2026-05-06 01:16 35.16048 -81.09788 4026 ft 261 kts 323°
2026-05-06 01:16 35.17762 -81.10526 4030 ft 266 kts 350°
2026-05-06 01:16 35.19616 -81.10732 4017 ft 269 kts 352°
2026-05-06 01:16 35.21482 -81.10928 4018 ft 269 kts 352°
2026-05-06 01:17 35.23334 -81.11134 4019 ft 267 kts 352°
2026-05-06 01:17 35.25186 -81.11326 4020 ft 269 kts 352°
2026-05-06 01:17 35.27054 -81.11520 4018 ft 269 kts 352°
2026-05-06 01:17 35.28916 -81.11723 4020 ft 269 kts 352°
2026-05-06 01:18 35.30783 -81.11916 4013 ft 268 kts 352°
2026-05-06 01:18 35.32648 -81.12105 4019 ft 271 kts 352°
2026-05-06 01:18 35.34515 -81.12298 4016 ft 268 kts 352°
2026-05-06 01:18 35.36384 -81.12495 4019 ft 271 kts 352°
2026-05-06 01:19 35.38265 -81.12629 4011 ft 272 kts
2026-05-06 01:19 35.40021 -81.11951 4018 ft 261 kts 33°
2026-05-06 01:19 35.41262 -81.10418 4022 ft 252 kts 65°
2026-05-06 01:19 35.41814 -81.08437 4025 ft 245 kts 82°
2026-05-06 01:20 35.42200 -81.06402 4024 ft 245 kts 82°
2026-05-06 01:20 35.42590 -81.04356 4018 ft 246 kts 82°
2026-05-06 01:20 35.42977 -81.02319 4014 ft 246 kts 82°
2026-05-06 01:20 35.43118 -81.00274 4019 ft 238 kts 106°
2026-05-06 01:21 35.42485 -80.98478 4024 ft 226 kts 133°
2026-05-06 01:21 35.41457 -80.97041 4006 ft 222 kts 140°
2026-05-06 01:21 35.40195 -80.96246 4313 ft 207 kts 169°
2026-05-06 01:21 35.38758 -80.96006 4220 ft 209 kts 181°
2026-05-06 01:22 35.37314 -80.96096 4070 ft 206 kts 186°
2026-05-06 01:22 35.35862 -80.96226 3655 ft 212 kts 183°
2026-05-06 01:22 35.34384 -80.96263 3202 ft 212 kts 182°
2026-05-06 01:22 35.32905 -80.96215 2759 ft 212 kts 177°
2026-05-06 01:23 35.31447 -80.96050 2455 ft 209 kts 180°
2026-05-06 01:23 35.30001 -80.95938 2186 ft 207 kts 175°
2026-05-06 01:23 35.28570 -80.95819 1905 ft 206 kts 179°
2026-05-06 01:23 35.27170 -80.95685 1645 ft 205 kts 177°
2026-05-06 01:24 35.25708 -80.95577 1363 ft 214 kts 176°
2026-05-06 01:24 35.24216 -80.95439 1076 ft 216 kts 178°
2026-05-06 01:24 35.22737 -80.95331 727 ft 207 kts 175°
2026-05-06 01:24 35.21631 -80.95221 725 ft 96 kts 175°
2026-05-06 01:25 35.21215 -80.95186 726 ft 32 kts 184°
2026-05-06 01:25 35.21129 -80.95280 729 ft 11 kts 282°
2026-05-06 01:25 35.21168 -80.95373 729 ft 6 kts 328°